カタログに戻る

USA 110

運用中軍事GEO
NORAD 23567·PAYLOAD·🇺🇸 United States

打ち上げ May 14, 1995 から Cape Canaveral Space Force Station

Loading…

TLE

最新Source: Mike McCants

元期: Sep 14, 2026, 16:33 UTC

1 23567U 95022A   26257.68989090  .00000000  00000-0  00000-0 0    05
2 23567  16.4199   7.0752 0031434 144.5537 215.6704  1.00270000 20669

AllMySatでUSA 110をリアルタイム追跡

Download on the App Store